Project,Study,Ord_Occ,Event_Num,Cast_ID,Date_Time_UTC,Date_Time_PST,Lat_Dec,Lon_Dec,Sta_ID,Line,Sta,Depth,Pressure,PrQ,Temp1,Temp1Q,Temp2,Temp2Q,TempAve,Salt1,Salt1Q,Salt1_Corr,Salt2,Salt2Q,Salt2_Corr,SaltAve_Corr,Ox1,Ox1Q,Ox1_CruiseCorr,Ox1_StaCorr,Ox2,Ox2Q,Ox2_CruiseCorr,Ox2_StaCorr,OxAve_StaCorr,Ox1uM,Ox1uM_CruiseCorr,Ox1uM_StaCorr,Ox2uM,Ox2uM_CruiseCorr,Ox2uM_StaCorr,OxAveuM_StaCorr,FluorV,FluorQ,EstChl_CruiseCorr,EstChl_StaCorr,ISUSV,ISUSQ,EstNO3_CruiseCorr,EstNO3_StaCorr,SigThetaTS1,SigThetaTS1Q,SigThetaTS2,SigThetaTS2Q,BAT,XMiss,TransQ,pH,pHQ,SPAR,SPARQ,PAR,PARQ,PoT1,PoT2,DynHt,SVA,OxSat1,OxSat2,BTL_Depth,BTL_Temp,SaltB,OxB,OxBuM,Chl-a,Phaeo,NO3,NO2,NH4,PO4,SIL
CalCOFI,2007SR,075,77,2007_075d,27-Jul-2020 07:30:39,26-Jul-2020 23:30:39,34.17840,-119.50776,083.3 042.0,083.3,042.0,2.000,2.014,,17.3621,,17.3687,,17.3654,33.7103,,33.7105,33.7094,,33.7110,33.7108,5.8095,,6.0526,6.1105,4.2877,,6.2948,5.1374,5.6240,253.264,263.8942,267.2312,186.920,453.9028,205.6328,236.4320,0.2246,,2.2236,1.7085,-99.0,,-99.0,-99.0,24.4387,,24.4364,,1.0258,77.3800,,8.289,,1.9043E+00,,4.9846E-01,,17.3618,17.3683,0.0056,,106.031,78.266,2,17.572,33.7109,6.016,262.61,1.617,0.316,0.13,0.031,0.10,0.13,2.15
CalCOFI,2007SR,075,77,2007_075d,27-Jul-2020 07:30:50,26-Jul-2020 23:30:50,34.17840,-119.50776,083.3 042.0,083.3,042.0,3.000,3.022,,17.4944,,17.4895,,17.4920,33.7102,,33.7104,33.7128,,33.7144,33.7124,5.7663,,6.0075,6.0649,4.2809,,6.2786,5.1164,5.5907,251.388,261.9358,265.2395,186.630,449.3144,204.8519,235.0457,0.2330,,2.3232,1.7781,-99.0,,-99.0,-99.0,24.4071,,24.4101,,1.0194,77.5042,,8.288,,1.9043E+00,,4.2824E-01,,17.4939,17.4890,0.0113,,105.510,78.325,,,,,,,,,,,,
CalCOFI,2007SR,075,77,2007_075d,27-Jul-2020 07:30:52,26-Jul-2020 23:30:52,34.17840,-119.50776,083.3 042.0,083.3,042.0,4.000,4.029,,17.5371,,17.5399,,17.5385,33.7096,,33.7098,33.7097,,33.7113,33.7106,5.7598,,6.0007,6.0580,4.2769,,6.2690,5.1041,5.5811,251.105,261.6404,264.9390,186.458,448.6222,204.3887,234.6639,0.2363,,2.3623,1.8054,-99.0,,-99.0,-99.0,24.3963,,24.3957,,1.0141,77.6064,,8.288,,1.9043E+00,,4.0354E-01,,17.5364,17.5393,0.0147,,105.476,78.326,,,,,,,,,,,,
CalCOFI,2007SR,075,77,2007_075d,27-Jul-2020 07:30:54,26-Jul-2020 23:30:54,34.17840,-119.50776,083.3 042.0,083.3,042.0,5.000,5.036,,17.5360,,17.5357,,17.5359,33.7095,,33.7097,33.7096,,33.7112,33.7105,5.7547,,5.9954,6.0526,4.2772,,6.2698,5.1050,5.5788,250.885,261.4108,264.7054,186.472,448.0841,204.4264,234.5659,0.2303,,2.2912,1.7557,-99.0,,-99.0,-99.0,24.3965,,24.3967,,1.0127,77.6333,,8.288,,1.9043E+00,,3.8687E-01,,17.5352,17.5348,0.0182,,105.382,78.325,,,,,,,,,,,,
CalCOFI,2007SR,075,77,2007_075d,27-Jul-2020 07:30:56,26-Jul-2020 23:30:56,34.17840,-119.50776,083.3 042.0,083.3,042.0,6.000,6.043,,17.5345,,17.5347,,17.5346,33.7092,,33.7094,33.7093,,33.7109,33.7102,5.7267,,5.9661,6.0231,4.2905,,6.3015,5.1461,5.5846,249.665,260.1372,263.4102,187.051,445.1001,205.9855,234.6979,0.2168,,2.1312,1.6439,-99.0,,-99.0,-99.0,24.3968,,24.3968,,1.0139,77.6090,,8.288,,1.9043E+00,,3.7264E-01,,17.5335,17.5337,0.0218,,104.866,78.567,,,,,,,,,,,,
CalCOFI,2007SR,075,77,2007_075d,27-Jul-2020 07:30:58,26-Jul-2020 23:30:58,34.17840,-119.50776,083.3 042.0,083.3,042.0,7.000,7.051,,17.4015,,17.3091,,17.3553,33.6880,,33.6882,33.6825,,33.6841,33.6862,5.8152,,6.0586,6.1166,4.3392,,6.4178,5.2964,5.7065,253.517,264.1583,267.4998,189.166,454.5216,211.6807,239.5903,0.2509,,2.5356,1.9264,-99.0,,-99.0,-99.0,24.4122,,24.4299,,1.0148,77.5933,,8.288,,1.9043E+00,,3.5420E-01,,17.4003,17.3079,0.0253,,106.202,79.099,,,,,,,,,,,,
CalCOFI,2007SR,075,77,2007_075d,27-Jul-2020 07:31:01,26-Jul-2020 23:31:01,34.17840,-119.50776,083.3 042.0,083.3,042.0,8.000,8.058,,16.4465,,16.3960,,16.4213,33.6877,,33.6879,33.6810,,33.6826,33.6853,5.8756,,6.1217,6.1804,4.4400,,6.6584,5.6076,5.8940,256.095,266.8495,270.2368,193.523,460.8270,223.4130,246.8249,0.3344,,3.5288,2.6183,-99.0,,-99.0,-99.0,24.6365,,24.6430,,1.0622,76.6797,,8.291,,1.9043E+00,,3.4262E-01,,16.4453,16.3947,0.0287,,105.344,79.525,,,,,,,,,,,,
CalCOFI,2007SR,075,77,2007_075d,27-Jul-2020 07:31:02,26-Jul-2020 23:31:02,34.17840,-119.50776,083.3 042.0,083.3,042.0,9.000,9.065,,15.4608,,15.3178,,15.3893,33.6709,,33.6711,33.6707,,33.6723,33.6717,5.9952,,6.2467,6.3068,4.5342,,6.8833,5.8983,6.1026,261.253,272.2339,275.7130,197.583,473.4427,234.3456,255.0293,1.0541,,12.2653,8.5814,-99.0,,-99.0,-99.0,24.8461,,24.8776,,1.3339,71.6749,,8.269,,1.9043E+00,,3.3616E-01,,15.4594,15.3165,0.0320,,105.415,79.502,,,,,,,,,,,,
CalCOFI,2007SR,075,77,2007_075d,27-Jul-2020 07:31:04,26-Jul-2020 23:31:04,34.17840,-119.50776,083.3 042.0,083.3,042.0,10.000,10.072,,14.9592,,14.9003,,14.9298,33.6827,,33.6829,33.6851,,33.6867,33.6848,6.0277,,6.2806,6.3411,4.5742,,6.9788,6.0218,6.1815,262.639,273.6808,277.1845,199.304,476.8327,238.9798,258.0822,1.2263,,14.4023,10.0082,-99.0,,-99.0,-99.0,24.9655,,24.9802,,1.4603,69.4164,,8.257,,1.9043E+00,,3.2610E-01,,14.9577,14.8988,0.0350,,104.948,79.549,,,,,,,,,,,,
CalCOFI,2007SR,075,77,2007_075d,27-Jul-2020 07:31:07,26-Jul-2020 23:31:07,34.17840,-119.50776,083.3 042.0,083.3,042.0,11.000,11.080,,14.6969,,14.6986,,14.6978,33.6916,,33.6918,33.6946,,33.6962,33.6940,6.0213,,6.2740,6.3343,4.5940,,7.0261,6.0829,6.2086,262.347,273.3759,276.8745,200.160,476.1185,241.2848,259.0797,1.5516,,18.4885,12.7036,-99.0,,-99.0,-99.0,25.0291,,25.0311,,1.5768,67.4225,,8.249,,1.9043E+00,,3.2607E-01,,14.6953,14.6970,0.0380,,104.295,79.577,11,14.792,33.7105,6.440,281.12,8.393,1.528,0.0,0.034,0.00,0.20,4.25
CalCOFI,2007SR,075,77,2007_075d,27-Jul-2020 07:31:08,26-Jul-2020 23:31:08,34.17840,-119.50776,083.3 042.0,083.3,042.0,12.000,12.087,,14.6571,,14.6488,,14.6530,33.6965,,33.6967,33.6995,,33.7011,33.6989,6.0109,,6.2631,6.3234,4.5993,,7.0387,6.0993,6.2114,261.888,272.8968,276.3872,200.388,474.9959,241.8988,259.1430,1.3743,,16.2534,11.2345,-99.0,,-99.0,-99.0,25.0415,,25.0456,,1.6232,66.6447,,8.245,,1.9043E+00,,3.3602E-01,,14.6553,14.6470,0.0409,,104.035,79.592,,,,,,,,,,,,
CalCOFI,2007SR,075,77,2007_075d,27-Jul-2020 07:31:10,26-Jul-2020 23:31:10,34.17840,-119.50776,083.3 042.0,083.3,042.0,13.000,13.094,,14.6451,,14.6416,,14.6434,33.7002,,33.7004,33.7027,,33.7043,33.7024,5.9914,,6.2427,6.3028,4.6005,,7.0416,6.1030,6.2029,261.040,272.0116,275.4869,200.439,472.9218,242.0361,258.7615,1.3730,,16.2371,11.2237,-99.0,,-99.0,-99.0,25.0469,,25.0496,,1.6386,66.3905,,8.241,,1.9043E+00,,3.2799E-01,,14.6432,14.6396,0.0439,,103.676,79.603,,,,,,,,,,,,
CalCOFI,2007SR,075,77,2007_075d,27-Jul-2020 07:31:12,26-Jul-2020 23:31:12,34.17840,-119.50776,083.3 042.0,083.3,042.0,14.000,14.101,,14.6386,,14.6352,,14.6369,33.7030,,33.7032,33.7050,,33.7066,33.7049,5.9575,,6.2073,6.2669,4.6017,,7.0444,6.1067,6.1868,259.562,270.4687,273.9177,200.488,469.3068,242.1681,258.0429,1.4332,,16.9938,11.7225,-99.0,,-99.0,-99.0,25.0505,,25.0528,,1.6632,65.9844,,8.239,,1.9043E+00,,3.0885E-01,,14.6366,14.6331,0.0468,,103.077,79.614,,,,,,,,,,,,
CalCOFI,2007SR,075,77,2007_075d,27-Jul-2020 07:31:15,26-Jul-2020 23:31:15,34.17840,-119.50776,083.3 042.0,083.3,042.0,15.000,15.109,,14.6196,,14.6183,,14.6190,33.7054,,33.7056,33.7073,,33.7089,33.7073,5.9226,,6.1708,6.2301,4.6039,,7.0497,6.1135,6.1718,258.039,268.8788,272.3008,200.585,465.5818,242.4292,257.3650,1.4111,,16.7157,11.5394,-99.0,,-99.0,-99.0,25.0565,,25.0582,,1.6419,66.3356,,8.236,,1.9043E+00,,2.9418E-01,,14.6174,14.6160,0.0497,,102.435,79.626,,,,,,,,,,,,
CalCOFI,2007SR,075,77,2007_075d,27-Jul-2020 07:31:17,26-Jul-2020 23:31:17,34.17840,-119.50776,083.3 042.0,083.3,042.0,16.000,16.116,,14.6038,,14.6012,,14.6025,33.7068,,33.7070,33.7084,,33.7100,33.7085,5.8532,,6.0983,6.1567,4.6061,,7.0549,6.1203,6.1385,255.012,265.7189,269.0870,200.677,458.1781,242.6770,255.8820,1.3966,,16.5335,11.4193,-99.0,,-99.0,-99.0,25.0609,,25.0627,,1.6464,66.2600,,8.234,,1.9043E+00,,2.6118E-01,,14.6014,14.5989,0.0526,,101.203,79.637,,,,,,,,,,,,
CalCOFI,2007SR,075,77,2007_075d,27-Jul-2020 07:31:19,26-Jul-2020 23:31:19,34.17840,-119.50776,083.3 042.0,083.3,042.0,17.000,17.123,,14.5741,,14.5708,,14.5725,33.7076,,33.7078,33.7094,,33.7110,33.7094,5.8048,,6.0477,6.1056,4.6086,,7.0609,6.1280,6.1168,252.903,263.5173,266.8479,200.789,453.0198,242.9786,254.9133,1.5911,,18.9890,13.0308,-99.0,,-99.0,-99.0,25.0680,,25.0700,,1.6687,65.8920,,8.228,,1.9043E+00,,2.3755E-01,,14.5716,14.5683,0.0555,,100.308,79.633,,,,,,,,,,,,
CalCOFI,2007SR,075,77,2007_075d,27-Jul-2020 07:31:20,26-Jul-2020 23:31:20,34.17840,-119.50776,083.3 042.0,083.3,042.0,18.000,18.130,,14.5544,,14.5528,,14.5536,33.7088,,33.7090,33.7106,,33.7122,33.7106,5.7526,,5.9932,6.0504,4.6054,,7.0533,6.1181,6.0843,250.629,261.1435,264.4337,200.647,447.4580,242.5962,253.5150,1.2928,,15.2324,10.5592,-99.0,,-99.0,-99.0,25.0731,,25.0748,,1.6560,66.1020,,8.222,,1.9043E+00,,2.0001E-01,,14.5517,14.5502,0.0584,,99.367,79.549,,,,,,,,,,,,
CalCOFI,2007SR,075,77,2007_075d,27-Jul-2020 07:31:23,26-Jul-2020 23:31:23,34.17840,-119.50776,083.3 042.0,083.3,042.0,19.000,19.138,,14.5402,,14.5393,,14.5398,33.7090,,33.7092,33.7109,,33.7125,33.7109,5.7622,,6.0032,6.0606,4.6031,,7.0478,6.1110,6.0858,251.044,261.5767,264.8743,200.544,448.4730,242.3188,253.5966,1.6336,,19.5287,13.3830,-99.0,,-99.0,-99.0,25.0763,,25.0779,,1.7158,65.1290,,8.215,,1.9043E+00,,1.6134E-01,,14.5374,14.5366,0.0614,,99.504,79.488,,,,,,,,,,,,
CalCOFI,2007SR,075,77,2007_075d,27-Jul-2020 07:31:25,26-Jul-2020 23:31:25,34.17840,-119.50776,083.3 042.0,083.3,042.0,20.000,20.145,,14.5251,,14.5247,,14.5249,33.7098,,33.7100,33.7111,,33.7127,33.7114,5.8109,,6.0541,6.1120,4.5968,,7.0327,6.0916,6.1018,253.165,263.7908,267.1261,200.271,453.6606,241.5837,254.3549,1.7129,,20.5385,14.0400,-99.0,,-99.0,-99.0,25.0802,,25.0813,,1.8076,63.6432,,8.215,,1.9043E+00,,1.3768E-01,,14.5221,14.5218,0.0643,,100.315,79.356,,,,,,,,,,,,
CalCOFI,2007SR,075,77,2007_075d,27-Jul-2020 07:31:27,26-Jul-2020 23:31:27,34.17840,-119.50776,083.3 042.0,083.3,042.0,21.000,21.152,,14.5182,,14.5169,,14.5176,33.7104,,33.7106,33.7121,,33.7137,33.7122,5.7453,,5.9856,6.0427,4.5953,,7.0292,6.0869,6.0648,250.308,260.8084,264.0929,200.205,446.6728,241.4060,252.7495,1.6075,,19.1971,13.1667,-99.0,,-99.0,-99.0,25.0822,,25.0837,,1.7835,64.0272,,8.218,,1.9043E+00,,1.1076E-01,,14.5151,14.5138,0.0671,,99.170,79.319,21,14.521,33.7097,6.020,262.78,17.245,2.438,0.0,0.033,0.00,0.29,4.95
CalCOFI,2007SR,075,77,2007_075d,27-Jul-2020 07:31:28,26-Jul-2020 23:31:28,34.17840,-119.50776,083.3 042.0,083.3,042.0,22.000,22.160,,14.5088,,14.5079,,14.5084,33.7103,,33.7105,33.7118,,33.7134,33.7120,5.5079,,5.7375,5.7919,4.5937,,7.0253,6.0820,5.9370,239.962,250.0082,253.1086,200.133,421.3680,241.2121,247.1604,1.7822,,21.4241,14.6142,-99.0,,-99.0,-99.0,25.0841,,25.0854,,1.8090,63.6203,,8.214,,1.9043E+00,,8.5526E-02,,14.5056,14.5047,0.0700,,95.053,79.276,,,,,,,,,,,,
CalCOFI,2007SR,075,77,2007_075d,27-Jul-2020 07:31:30,26-Jul-2020 23:31:30,34.17840,-119.50776,083.3 042.0,083.3,042.0,23.000,23.167,,14.4680,,14.4675,,14.4678,33.7108,,33.7110,33.7121,,33.7137,33.7124,5.2374,,5.4549,5.5060,4.5976,,7.0347,6.0940,5.8000,228.175,237.7038,240.5945,200.302,392.5387,241.6672,241.1309,1.4737,,17.5041,12.0581,-99.0,,-99.0,-99.0,25.0932,,25.0943,,1.6477,66.2651,,8.187,,1.9043E+00,,6.2615E-02,,14.4647,14.4642,0.0729,,90.312,79.279,,,,,,,,,,,,
CalCOFI,2007SR,075,77,2007_075d,27-Jul-2020 07:31:33,26-Jul-2020 23:31:33,34.17840,-119.50776,083.3 042.0,083.3,042.0,24.000,24.174,,14.3910,,14.3921,,14.3916,33.7133,,33.7135,33.7134,,33.7150,33.7143,5.0352,,5.2436,5.2924,4.5952,,7.0289,6.0866,5.6895,219.362,228.5039,231.2379,200.194,370.9833,241.3764,236.3072,0.9358,,10.8076,7.6012,-99.0,,-99.0,-99.0,25.1115,,25.1114,,1.2932,72.3932,,8.161,,1.9043E+00,,4.8919E-02,,14.3875,14.3886,0.0758,,86.692,79.118,,,,,,,,,,,,
CalCOFI,2007SR,075,77,2007_075d,27-Jul-2020 07:31:35,26-Jul-2020 23:31:35,34.17840,-119.50776,083.3 042.0,083.3,042.0,25.000,25.182,,14.3056,,14.3053,,14.3055,33.7103,,33.7105,33.7103,,33.7119,33.7112,4.8552,,5.0555,5.1022,4.5879,,7.0115,6.0641,5.5832,211.519,220.3166,222.9111,199.875,351.8005,240.5174,231.7143,0.6749,,7.6229,5.4395,-99.0,,-99.0,-99.0,25.1272,,25.1273,,1.1195,75.5875,,8.150,,1.9043E+00,,3.4919E-02,,14.3019,14.3017,0.0787,,83.448,78.854,,,,,,,,,,,,
CalCOFI,2007SR,075,77,2007_075d,27-Jul-2020 07:31:37,26-Jul-2020 23:31:37,34.17840,-119.50776,083.3 042.0,083.3,042.0,26.000,26.189,,14.2190,,14.1900,,14.2045,33.6996,,33.6998,33.6960,,33.6976,33.6987,4.7081,,4.9018,4.9467,4.5809,,6.9948,6.0425,5.4946,205.107,213.6231,216.1035,199.567,336.1176,239.6880,227.8958,0.6222,,6.9846,5.0029,-99.0,,-99.0,-99.0,25.1372,,25.1405,,1.0825,76.2922,,8.137,,1.9043E+00,,2.6502E-02,,14.2153,14.1863,0.0815,,80.773,78.543,,,,,,,,,,,,
CalCOFI,2007SR,075,77,2007_075d,27-Jul-2020 07:31:39,26-Jul-2020 23:31:39,34.17840,-119.50776,083.3 042.0,083.3,042.0,27.000,27.196,,14.0024,,14.0124,,14.0074,33.6905,,33.6907,33.6950,,33.6966,33.6937,4.5914,,4.7799,4.8234,4.5703,,6.9695,6.0098,5.4166,200.015,208.3076,210.6974,199.098,323.6633,238.4251,224.5613,0.4752,,5.2132,3.7849,-99.0,,-99.0,-99.0,25.1755,,25.1769,,1.0082,77.7266,,8.124,,1.9043E+00,,9.1154E-03,,13.9986,14.0085,0.0844,,78.422,78.080,,,,,,,,,,,,
CalCOFI,2007SR,075,77,2007_075d,27-Jul-2020 07:31:41,26-Jul-2020 23:31:41,34.17840,-119.50776,083.3 042.0,083.3,042.0,28.000,28.204,,13.8641,,13.8755,,13.8698,33.6868,,33.6870,33.6868,,33.6884,33.6877,4.4658,,4.6486,4.6907,4.5493,,6.9193,5.9450,5.3179,194.542,202.5943,204.8868,198.178,310.2771,235.9478,220.4173,0.2687,,2.7469,2.0739,-99.0,,-99.0,-99.0,25.2014,,25.1990,,0.8458,80.9392,,8.106,,1.9043E+00,,8.1239E-03,,13.8601,13.8715,0.0872,,76.062,77.501,,,,,,,,,,,,
CalCOFI,2007SR,075,77,2007_075d,27-Jul-2020 07:31:43,26-Jul-2020 23:31:43,34.17840,-119.50776,083.3 042.0,083.3,042.0,29.000,29.211,,13.7876,,13.7958,,13.7917,33.6821,,33.6823,33.6831,,33.6847,33.6835,4.3613,,4.5394,4.5803,4.5242,,6.8594,5.8675,5.2239,189.984,197.8362,200.0476,197.080,299.1289,232.9911,216.5194,0.2200,,2.1691,1.6704,-99.0,,-99.0,-99.0,25.2136,,25.2126,,0.8070,81.7309,,8.093,,1.9043E+00,,5.2016E-03,,13.7835,13.7917,0.0899,,74.163,76.946,,,,,,,,,,,,
CalCOFI,2007SR,075,77,2007_075d,27-Jul-2020 07:31:45,26-Jul-2020 23:31:45,34.17840,-119.50776,083.3 042.0,083.3,042.0,30.000,30.218,,13.6504,,13.6535,,13.6520,33.6724,,33.6726,33.6722,,33.6738,33.6732,4.2833,,4.4579,4.4978,4.5096,,6.8246,5.8224,5.1601,186.585,194.2880,196.4389,196.443,290.8154,231.2759,213.8574,0.1834,,1.7357,1.3671,-99.0,,-99.0,-99.0,25.2342,,25.2334,,0.7732,82.4239,,8.081,,1.9043E+00,,1.6122E-03,,13.6462,13.6493,0.0927,,72.630,76.472,30,13.615,33.6821,,198.37,2.358,0.806,6.57,0.137,1.42,0.79,9.25
CalCOFI,2007SR,075,77,2007_075d,27-Jul-2020 07:31:47,26-Jul-2020 23:31:47,34.17840,-119.50776,083.3 042.0,083.3,042.0,31.000,31.226,,13.5395,,13.5471,,13.5433,33.6675,,33.6677,33.6687,,33.6703,33.6690,4.1014,,4.2679,4.3056,4.5008,,6.8036,5.7952,5.0504,178.658,186.0130,188.0230,196.056,271.4271,230.2338,209.1284,0.1489,,1.3280,1.0813,-99.0,,-99.0,-99.0,25.2531,,25.2525,,0.7681,82.5289,,8.073,,1.9043E+00,,1.3029E-06,,13.5351,13.5428,0.0954,,69.387,76.155,,,,,,,,,,,,
CalCOFI,2007SR,075,77,2007_075d,27-Jul-2020 07:31:49,26-Jul-2020 23:31:49,34.17840,-119.50776,083.3 042.0,083.3,042.0,32.000,32.233,,13.2318,,13.2666,,13.2492,33.6428,,33.6430,33.6461,,33.6477,33.6454,3.9914,,4.1529,4.1894,4.4974,,6.7954,5.7847,4.9871,173.856,181.0002,182.9247,195.900,259.6821,229.8137,206.3692,0.1023,,0.7784,0.6952,-99.0,,-99.0,-99.0,25.2961,,25.2917,,0.7442,83.0247,,8.048,,1.9043E+00,,1.0000E-12,,13.2274,13.2622,0.0982,,67.090,75.651,,,,,,,,,,,,
CalCOFI,2007SR,075,77,2007_075d,27-Jul-2020 07:31:51,26-Jul-2020 23:31:51,34.17840,-119.50776,083.3 042.0,083.3,042.0,33.000,33.240,,12.8079,,12.8700,,12.8390,33.6305,,33.6307,33.6278,,33.6294,33.6301,3.9731,,4.1338,4.1701,4.4887,,6.7747,5.7579,4.9640,173.050,180.1588,182.0690,195.509,257.7108,228.7608,205.4149,0.0543,,0.2137,0.2974,-99.0,,-99.0,-99.0,25.3708,,25.3564,,0.7036,83.8710,,8.027,,1.9043E+00,,1.0000E-12,,12.8035,12.8656,0.1008,,66.197,74.882,,,,,,,,,,,,
CalCOFI,2007SR,075,77,2007_075d,27-Jul-2020 07:31:53,26-Jul-2020 23:31:53,34.17840,-119.50776,083.3 042.0,083.3,042.0,34.000,34.248,,12.6533,,12.6660,,12.6597,33.6424,,33.6426,33.6428,,33.6444,33.6435,3.9604,,4.1205,4.1566,4.4646,,6.7171,5.6835,4.9201,172.489,179.5732,181.4734,194.448,256.3386,225.9038,203.6886,0.0499,,0.1620,0.2610,-99.0,,-99.0,-99.0,25.4103,,25.4081,,0.6921,84.1111,,8.019,,1.9043E+00,,1.0000E-12,,12.6488,12.6614,0.1034,,65.778,74.172,,,,,,,,,,,,
CalCOFI,2007SR,075,77,2007_075d,27-Jul-2020 07:31:55,26-Jul-2020 23:31:55,34.17840,-119.50776,083.3 042.0,083.3,042.0,35.000,35.255,,12.5862,,12.5941,,12.5902,33.6486,,33.6488,33.6503,,33.6519,33.6504,3.9400,,4.0992,4.1351,4.4263,,6.6257,5.5653,4.8502,171.596,178.6410,180.5253,192.777,254.1545,221.4042,200.9648,0.0622,,0.3066,0.3629,-99.0,,-99.0,-99.0,25.4282,,25.4280,,0.6940,84.0714,,8.017,,1.9043E+00,,1.0000E-12,,12.5815,12.5894,0.1060,,65.350,73.430,,,,,,,,,,,,
CalCOFI,2007SR,075,77,2007_075d,27-Jul-2020 07:31:57,26-Jul-2020 23:31:57,34.17840,-119.50776,083.3 042.0,083.3,042.0,36.000,36.262,,12.5597,,12.5674,,12.5636,33.6517,,33.6519,33.6524,,33.6540,33.6530,3.8786,,4.0350,4.0702,4.3961,,6.5536,5.4720,4.7711,168.921,175.8485,177.6853,191.459,247.6118,217.8552,197.7703,0.0473,,0.1315,0.2394,-99.0,,-99.0,-99.0,25.4357,,25.4348,,0.6926,84.1011,,8.013,,1.9043E+00,,1.0000E-12,,12.5550,12.5626,0.1086,,64.298,72.889,,,,,,,,,,,,
CalCOFI,2007SR,075,77,2007_075d,27-Jul-2020 07:31:59,26-Jul-2020 23:31:59,34.17840,-119.50778,083.3 042.0,083.3,042.0,37.000,37.270,,12.4899,,12.5016,,12.4958,33.6504,,33.6506,33.6511,,33.6527,33.6517,3.8241,,3.9781,4.0126,4.3740,,6.5009,5.4038,4.7082,166.547,173.3703,175.1649,190.494,241.8053,215.2567,195.2108,0.0478,,0.1374,0.2436,-99.0,,-99.0,-99.0,25.4483,,25.4466,,0.6894,84.1681,,8.008,,1.9043E+00,,1.0000E-12,,12.4850,12.4967,0.1111,,63.303,72.422,,,,,,,,,,,,
CalCOFI,2007SR,075,77,2007_075d,27-Jul-2020 07:32:01,26-Jul-2020 23:32:01,34.17840,-119.50776,083.3 042.0,083.3,042.0,38.000,38.277,,12.3013,,12.3089,,12.3051,33.6505,,33.6507,33.6517,,33.6533,33.6520,3.7618,,3.9130,3.9468,4.3600,,6.4674,5.3606,4.6537,163.825,170.5288,172.2749,189.881,235.1477,213.6060,192.9405,0.0478,,0.1374,0.2436,-99.0,,-99.0,-99.0,25.4847,,25.4842,,0.6865,84.2299,,7.998,,1.9043E+00,,1.0000E-12,,12.2963,12.3039,0.1136,,62.027,71.903,,,,,,,,,,,,
CalCOFI,2007SR,075,77,2007_075d,27-Jul-2020 07:32:03,26-Jul-2020 23:32:03,34.17840,-119.50777,083.3 042.0,083.3,042.0,39.000,39.285,,12.1773,,12.1649,,12.1711,33.6672,,33.6674,33.6703,,33.6719,33.6697,3.6671,,3.8141,3.8467,4.3480,,6.4388,5.3236,4.5852,159.696,166.2186,167.8913,189.349,225.0488,212.1735,190.0324,0.0523,,0.1902,0.2809,-99.0,,-99.0,-99.0,25.5214,,25.5261,,0.6908,84.1386,,7.989,,1.9043E+00,,1.0000E-12,,12.1723,12.1599,0.1161,,60.315,71.497,,,,,,,,,,,,
CalCOFI,2007SR,075,77,2007_075d,27-Jul-2020 07:32:05,26-Jul-2020 23:32:05,34.17840,-119.50776,083.3 042.0,083.3,042.0,40.000,40.292,,11.9719,,11.9421,,11.9570,33.6594,,33.6596,33.6638,,33.6654,33.6625,3.5825,,3.7257,3.7573,4.3420,,6.4245,5.3050,4.5312,156.008,162.3687,163.9757,189.081,216.0284,211.4518,187.7138,0.0641,,0.3289,0.3786,-99.0,,-99.0,-99.0,25.5542,,25.5632,,0.6944,84.0642,,7.977,,1.9043E+00,,1.0000E-12,,11.9668,11.9370,0.1186,,58.668,71.063,,,,,,,,,,,,
CalCOFI,2007SR,075,77,2007_075d,27-Jul-2020 07:32:07,26-Jul-2020 23:32:07,34.17840,-119.50776,083.3 042.0,083.3,042.0,41.000,41.299,,11.6840,,11.6687,,11.6764,33.6486,,33.6488,33.6520,,33.6536,33.6512,3.5640,,3.7063,3.7378,4.3345,,6.4066,5.2819,4.5099,155.195,161.5200,163.1126,188.747,214.0400,210.5524,186.8325,0.0686,,0.3818,0.4159,-99.0,,-99.0,-99.0,25.5996,,25.6051,,0.6945,84.0607,,7.960,,1.9043E+00,,1.0000E-12,,11.6788,11.6635,0.1210,,58.008,70.528,41,11.693,33.6671,,164.99,0.294,0.255,14.60,0.042,0.00,1.23,13.96
CalCOFI,2007SR,075,77,2007_075d,27-Jul-2020 07:32:09,26-Jul-2020 23:32:09,34.17840,-119.50776,083.3 042.0,083.3,042.0,42.000,42.307,,11.5345,,11.5291,,11.5318,33.6563,,33.6565,33.6596,,33.6612,33.6589,3.5499,,3.6916,3.7229,4.3110,,6.3505,5.2094,4.4662,154.575,160.8727,162.4543,187.719,212.5235,207.7843,185.1193,0.0669,,0.3618,0.4018,-99.0,,-99.0,-99.0,25.6332,,25.6368,,0.6969,84.0113,,7.956,,1.9043E+00,,1.0000E-12,,11.5292,11.5238,0.1234,,57.598,69.942,,,,,,,,,,,,
CalCOFI,2007SR,075,77,2007_075d,27-Jul-2020 07:32:11,26-Jul-2020 23:32:11,34.17840,-119.50777,083.3 042.0,083.3,042.0,43.000,43.314,,11.4851,,11.4778,,11.4815,33.6594,,33.6596,33.6615,,33.6631,33.6614,3.4746,,3.6129,3.6433,4.2884,,6.2965,5.1396,4.3915,151.294,157.4477,158.9709,186.729,204.4987,205.1185,182.0447,0.0643,,0.3313,0.3803,-99.0,,-99.0,-99.0,25.6447,,25.6477,,0.6930,84.0924,,7.951,,1.9043E+00,,1.0000E-12,,11.4798,11.4724,0.1258,,56.319,69.500,,,,,,,,,,,,
CalCOFI,2007SR,075,77,2007_075d,27-Jul-2020 07:32:13,26-Jul-2020 23:32:13,34.17840,-119.50778,083.3 042.0,083.3,042.0,44.000,44.322,,11.3714,,11.3604,,11.3659,33.6640,,33.6642,33.6665,,33.6681,33.6662,3.3991,,3.5340,3.5635,4.2678,,6.2473,5.0760,4.3198,148.003,154.0122,155.4769,185.830,196.4494,202.6977,179.0873,0.0625,,0.3101,0.3654,-99.0,,-99.0,-99.0,25.6691,,25.6731,,0.6963,84.0227,,7.940,,1.9043E+00,,1.0000E-12,,11.3659,11.3550,0.1281,,54.964,68.997,,,,,,,,,,,,
CalCOFI,2007SR,075,77,2007_075d,27-Jul-2020 07:32:15,26-Jul-2020 23:32:15,34.17840,-119.50778,083.3 042.0,083.3,042.0,45.000,45.329,,11.1935,,11.1878,,11.1907,33.6829,,33.6831,33.6860,,33.6876,33.6854,3.3988,,3.5337,3.5632,4.2467,,6.1969,5.0109,4.2871,147.984,153.9924,155.4568,184.901,196.4029,200.1961,177.8265,0.0556,,0.2290,0.3082,-99.0,,-99.0,-99.0,25.7161,,25.7196,,0.6887,84.1827,,7.933,,1.9043E+00,,1.0000E-12,,11.1880,11.1822,0.1305,,54.759,68.412,,,,,,,,,,,,
CalCOFI,2007SR,075,77,2007_075d,27-Jul-2020 07:32:17,26-Jul-2020 23:32:17,34.17840,-119.50778,083.3 042.0,083.3,042.0,46.000,46.336,,11.1265,,11.1219,,11.1242,33.6893,,33.6895,33.6913,,33.6929,33.6912,3.4015,,3.5365,3.5661,4.2255,,6.1463,4.9454,4.2558,148.102,154.1156,155.5820,183.976,196.6915,197.7053,176.6437,0.0552,,0.2243,0.3049,-99.0,,-99.0,-99.0,25.7333,,25.7356,,0.6939,84.0742,,7.930,,1.9043E+00,,1.0000E-12,,11.1208,11.1163,0.1328,,54.727,67.978,,,,,,,,,,,,
CalCOFI,2007SR,075,77,2007_075d,27-Jul-2020 07:32:19,26-Jul-2020 23:32:19,34.17840,-119.50778,083.3 042.0,083.3,042.0,47.000,47.344,,11.0753,,11.0735,,11.0744,33.6892,,33.6894,33.6915,,33.6931,33.6913,3.4058,,3.5410,3.5706,4.2002,,6.0859,4.8673,4.2190,148.287,154.3087,155.7785,182.874,197.1440,194.7379,175.2582,0.0542,,0.2126,0.2966,-99.0,,-99.0,-99.0,25.7423,,25.7445,,0.6836,84.2915,,7.930,,1.9043E+00,,1.0000E-12,,11.0696,11.0678,0.1350,,54.736,67.502,,,,,,,,,,,,
CalCOFI,2007SR,075,77,2007_075d,27-Jul-2020 07:32:21,26-Jul-2020 23:32:21,34.17840,-119.50778,083.3 042.0,083.3,042.0,48.000,48.351,,11.0199,,11.0187,,11.0193,33.6914,,33.6916,33.6933,,33.6949,33.6933,3.4035,,3.5386,3.5682,4.1743,,6.0241,4.7874,4.1778,148.185,154.2022,155.6702,181.743,196.8945,191.6924,173.6813,0.0535,,0.2043,0.2908,-99.0,,-99.0,-99.0,25.7540,,25.7557,,0.6806,84.3540,,7.927,,1.9043E+00,,1.0000E-12,,11.0141,11.0129,0.1373,,54.635,67.007,,,,,,,,,,,,
CalCOFI,2007SR,075,77,2007_075d,27-Jul-2020 07:32:23,26-Jul-2020 23:32:23,34.17840,-119.50778,083.3 042.0,083.3,042.0,49.000,49.359,,10.9833,,10.9790,,10.9812,33.6935,,33.6937,33.6954,,33.6970,33.6954,3.3779,,3.5119,3.5411,4.1486,,5.9628,4.7081,4.1246,147.069,153.0372,154.4853,180.621,194.1649,188.6711,171.5782,0.0543,,0.2137,0.2974,-99.0,,-99.0,-99.0,25.7622,,25.7644,,0.6810,84.3461,,7.925,,1.9043E+00,,1.0000E-12,,10.9773,10.9731,0.1395,,54.182,66.538,,,,,,,,,,,,